{"data":{"norad_id":66779,"epoch":"2026-09-20T10:50:34.033920Z","epoch_age_seconds":121746,"freshness":"FRESH","line1":"1 66779U 25276DT  26263.45178280  .00001447  00000+0  71619-4 0  9994","line2":"2 66779  97.4103 334.8774 0006077 148.8914 211.2682 15.19362827 44860","mean_motion":15.19362827,"eccentricity":0.0006077,"inclination_deg":97.4103,"raan_deg":334.8774,"arg_perigee_deg":148.8914,"mean_anomaly_deg":211.2682,"bstar":7.1619e-5,"rev_number":4486,"period_min":94.776571758261,"perigee_km":503.58053239331,"apogee_km":511.94965779969,"semimajor_km":6885.9020950965,"source":"CELESTRAK","updated_at":"2026-09-21T09:00:16.190307Z"}}